Weather in Kchik Qo'shtepa

Uzbekistan     40°30′42″N   71°03′27″E
temp.,
°C
wind,
m/s
gust,
m/s
humid.,
%
clouds,
%
prec.,
mm/h
press.,
hPa
HPBL,
m
13 april, tue
tue1323:00+18ese133057 0.1 1019366
02:00+16se123796 0.0 101971
05:00+16n1238100 0.0 101978
08:00+17ssw1136100 0.0 1021179
11:00+19wnw343497 0.0 1021987
14:00+21nw6534100 0.0 10211716
17:00+21wsw2333100 0.0 10201563
20:00+19ssw344129 0.0 1020359
14 april, wed
wed1423:00+17ene23485 0.0 1019212
02:00+16se22545 0.0 101899
05:00+15se115561 0.0 101817
08:00+17e2349100 0.0 1018327
11:00+21ne343587 0.0 10161024
14:00+24ene232778 0.0 10141647
17:00+25e22254 0.0 10121501
20:00+23se22305 0.0 101240
15 april, thu
thu1523:00+21s11340 0.0 101211
02:00+19se1137100 0.0 101111
05:00+18wsw1141100 0.0 101212
08:00+19w3344100 0.0 1014283
11:00+24w2231100 0.0 1013903
14:00+27w2224100 0.0 10111519
17:00+27wsw5422100 0.0 10101515
20:00+23wsw51032100 0.0 1012397
16 april, fri
fri1623:00+21wsw61233100 0.0 1011435
02:00+19wsw51236100 0.0 1011394
05:00+19wsw51232100 0.0 1012403
08:00+20w6929100 0.0 1013628
11:00+24w4425100 0.0 1013997
14:00+27w331729 0.0 10111529
17:00+28wsw55135 0.0 10101942
20:00+24wsw410185 0.0 1011428
17 april, sat
sat1723:00+21wsw7132549 0.0 1011568
02:00+20wsw51228100 0.0 1010399
05:00+18wsw3734100 0.0 1011200
08:00+20w4530100 0.0 1012387
11:00+24w332293 0.0 10111169
14:00+27wsw331593 0.0 10092020
17:00+27w541432 0.0 10072095
20:00+24wsw111519100 0.0 10091207